Regional Weather Roundup
Issued by NWS

Home | Current Version | Previous Version | Graphics & Text | Print | Product List | Glossary Off
Versions: 1 2 3 4 5 6 7 8 9 10 11 12 13 14 15 16 17 18 19 20 21 22 23 24 25 26 27 28 29 30 31 32 33 34 35 36 37 38 39 40 41 42 43 44 45 46 47 48 49 50

000
ASUS43 KDTX 170710
RWRMI
MICHIGAN HOURLY REGIONAL WEATHER ROUNDUP
NATIONAL WEATHER SERVICE DETROIT/PONTIAC MI
200 AM EST WED JAN 17 2018

NOTE: "FAIR" INDICATES FEW OR NO CLOUDS BELOW 12,000 FEET WITH NO
SIGNIFICANT WEATHER AND/OR OBSTRUCTION TO VISIBILITY.

MIZ047>049-052>055-059>063-066>070-074>076-081>083-170800-
SOUTHEAST LOWER MICHIGAN

CITY           SKY/WX    TMP DP  RH WIND       PRES   REMARKS
ADRIAN         CLOUDY     4   1  88 W5        30.46S WCI  -5
ALMA           FAIR      -5  -8  88 S3        30.43F
ANN ARBOR      FLURRIES   7   4  87 SW5       30.44S WCI  -2
BAD AXE        FAIR      -7 -11  82 CALM      30.40S
CARO           FAIR      -4  -8  85 CALM      30.41S
DETROIT CITY   FAIR       8   4  83 W6        30.45R WCI  -2
DETROIT        FLURRIES   5   1  83 W6        30.46S WCI  -6
FLINT          FAIR       3   0  87 SW5       30.43R WCI  -6
GROSSE ILE     FAIR       5   1  83 W6        30.46S WCI  -6
HILLSDALE      FLURRIES   5   1  85 W6        30.41S WCI  -6
HOWELL         CLOUDY     9   7  90 W7        30.42S WCI  -2

CITY           SKY/WX    TMP DP  RH WIND       PRES   REMARKS
JACKSON        CLOUDY     6   3  87 SW6       30.43S WCI  -4
LAMBERTVILLE   LGT SNOW   4   1  85 SW3       30.48R
LANSING        FAIR       4   2  91 SW3       30.44S
LAPEER         LGT SNOW   7   4  87 W3        30.41S
MASON          FLURRIES   6   1  79 CALM      30.44R
MONROE         FAIR       3  -2  79 SW5       30.46S WCI  -6
MT. CLEMENS    FAIR       7   5  91 W9          N/A  WCI  -6
PONTIAC        CLOUDY     4   2  91 W5        30.40R FOG     WCI  -5
PORT HOPE        N/A      7   3  84 W5        30.38S WCI  -2
PORT HURON     FAIR       9   5  85 CALM      30.42S
TRI CITIES     FAIR       7   5  91 SW3       30.42F
MIDLAND        FAIR       2  -2  83 CALM      30.42S
TROY           FAIR       8   4  85 SW6       30.45S WCI  -2
SAGINAW HB     FAIR       5   3  92 W5        30.43F WCI  -4
$$
MIZ043>046-050>051-056>058-064>065-071>073-077>080-170800-
SOUTHWEST LOWER MICHIGAN

CITY           SKY/WX    TMP DP  RH WIND       PRES   REMARKS
BATTLE CREEK   FAIR       2  -2  83 S5        30.44F WCI  -8
BENTON HARBOR  MOCLDY     4   0  83 E5        30.48S WCI  -5
BIG RAPIDS     CLOUDY     6   2  85 CALM      30.40S
COLDWATER      FAIR       0  -3  87 CALM      30.45S
FREMONT        CLOUDY    13   4  66 CALM      30.43S
HOLLAND        CLOUDY     8   3  80 CALM      30.46S
GRAND RAPIDS   MOCLDY     2  -1  88 SW3       30.44S
IONIA          FAIR       1  -3  85 SW7       30.42S WCI -12
KALAMAZOO      FAIR       1  -4  79 CALM      30.46S
LUDINGTON      CLOUDY    16  15  93 CALM      30.42S
MARSHALL       FAIR       0  -3  85 CALM      30.44F
MOUNT PLEASANT FAIR       2  -3  79 CALM      30.40F
MUSKEGON       FLURRIES  16   8  71 S6        30.46F WCI   7
SOUTH HAVEN    CLOUDY     1  -4  82 CALM      30.47S
$$
MIZ016>042-170800-
NORTHERN LOWER MICHIGAN

CITY           SKY/WX    TMP DP  RH WIND       PRES   REMARKS
ALPENA         FAIR      -3  -6  87 SW3       30.37S
BEAVER ISLAND  MOCLDY    21  10  63 W10G17    30.34F WCI  10
BELLAIRE       LGT SNOW  12  10  95 CALM      30.39F
CHARLEVOIX     CLOUDY    17  14  89 S6        30.38F WCI   9
FRANKFORT      CLOUDY    23  12  61 W7        30.39F WCI  15
GAYLORD        CLOUDY     4   2  91 CALM      30.31F
GRAYLING       FLURRIES  -1  -5  82 CALM      30.35S
HARBOR SPRINGS LGT SNOW  13  10  90 CALM      30.34F
HOUGHTON LAKE  CLOUDY     2  -2  83 SW3       30.36S
MANISTEE       CLOUDY    16  13  88 CALM      30.41F
OSCODA         FAIR       0  -5  80 SW5       30.39S WCI -10
PELLSTON       CLOUDY     3  -1  83 CALM      30.35F
ROGERS CITY    FAIR       6   1  83 SW5       30.36F WCI  -3
TRAVERSE CITY  FLURRIES  16  12  84 SW6       30.38F WCI   7
$$
MIZ007>008-015-170800-
EASTERN UPPER MICHIGAN

CITY           SKY/WX    TMP DP  RH WIND       PRES   REMARKS
KINROSS        CLOUDY    10   7  87 SW5       30.29F WCI   2
MACKINAC ISLAN FAIR      15  13  88 SW7       30.32F WCI   6
S. S. MARIE    CLOUDY    13   9  84 SW3       30.28F
MUNISING         N/A     12   9  87 SW9       30.29F WCI   0
$$
MIZ004>006-011>014-085-170800-
CENTRAL UPPER MICHIGAN

CITY           SKY/WX    TMP DP  RH WIND       PRES   REMARKS
MANISTIQUE     FAIR      10   7  87 W5        30.33F WCI   2
ESCANABA       FAIR       4   1  88 W6        30.35F WCI  -7
MENOMINEE      FAIR       7   4  87 W5        30.40F WCI  -2
SAWYER-GWINN   FAIR       8   4  85 SW8       30.26F WCI  -5
$$
MIZ001>003-009>011-084-170800-
WESTERN UPPER MICHIGAN

CITY           SKY/WX    TMP DP  RH WIND       PRES   REMARKS
IRON MOUNTAIN  MOCLDY     8   4  83 W5        30.30F WCI   0
HOUGHTON       CLOUDY    14   7  73 W20G28    30.20F WCI  -3
COPPER HARBOR    N/A     21  13  71 W10G22    30.19F WCI  10
IRONWOOD       MOCLDY     8   0  69 SW10      30.30F WCI  -6
$$

ABBREVIATIONS USED IN REMARKS
   TC - TEMPERATURE IN CELSIUS
  WCI - WIND CHILL INDEX
   HX - HEAT INDEX
  VSB - VISIBILITY





USA.gov is the U.S. government's official web portal to all federal, state and local government web resources and services.